Temp
23 21 20 20 21 22 22 22 22 21 21 22 21 21 21 21 21 21 20 19 19 19
24 23 21 21 21 21 21 22 21 20 20 21 21 21 21 21 20 20 20 20 20 19
24 24 23 23 23 21 21 22 22 21 22 22 22 21 20 20 20 21 20 20 19 19
25 25 24 24 24 24 23 23 23 23 22 22 22 21 21 21 21 21 19 21 20 18
26 26 24 25 24 24 24 24 24 23 23 22 22 22 21 21 19 19 19 19 19 19
24 26 26 25 25 23 24 24 22 23 23 23 22 21 20 19 19 19 20 19 18 18
25 25 26 26 25 23 24 24 24 23 22 23 22 20 20 19 19 19 18 18 19 20
29 27 26 26 26 26 23 24 25 24 23 23 22 20 20 19 19 19 18 19 20 19
29 29 28 28 27 26 25 26 25 24 23 22 20 20 21 20 20 18 18 18 17 17
29 29 29 28 27 26 26 26 26 24 20 20 20 22 21 20 19 18 18 19 17 18
28 28 27 26 26 26 25 24 20 20 19 20 21 20 20 20 19 18 18 17 19 19
27 24 24 22 25 25 21 20 22 22 20 20 20 20 20 19 18 18 17 17 18 18
25 24 22 21 23 24 24 24 24 25 24 21 18 19 19 19 18 18 17 17 15 16
24 25 24 23 21 24 24 23 23 22 21 17 17 18 18 18 18 17 17 17 17 16
Height
1535 1538 1540 1544 1546 1546 1547 1549 1550 1551 1551 1553 1554 1555 1555 1556 1556 1555 1556 1555 1554 1553
1530 1533 1537 1538 1539 1541 1543 1546 1547 1547 1548 1550 1551 1552 1553 1554 1554 1552 1552 1553 1552 1549
1525 1528 1531 1532 1533 1536 1539 1539 1541 1543 1545 1547 1547 1548 1549 1549 1549 1548 1548 1549 1548 1546
1520 1522 1524 1527 1528 1530 1532 1534 1537 1539 1541 1542 1543 1544 1544 1544 1543 1543 1542 1539 1539 1541
1514 1516 1519 1521 1522 1525 1527 1530 1532 1534 1536 1538 1539 1540 1541 1541 1541 1540 1539 1539 1537 1537
1506 1509 1512 1515 1518 1520 1523 1525 1528 1529 1531 1533 1535 1536 1537 1537 1536 1536 1536 1537 1536 1533
1498 1501 1505 1509 1512 1515 1517 1520 1523 1526 1527 1528 1530 1532 1533 1534 1535 1535 1536 1535 1534 1531
1489 1494 1498 1502 1505 1509 1512 1515 1519 1522 1523 1524 1526 1528 1529 1530 1532 1532 1531 1531 1531 1529
1481 1486 1491 1495 1498 1502 1506 1511 1516 1518 1518 1521 1524 1525 1525 1527 1529 1528 1527 1529 1528 1526
1471 1476 1481 1486 1490 1495 1501 1507 1511 1516 1520 1522 1521 1522 1523 1524 1526 1526 1526 1525 1525 1524
1464 1468 1473 1477 1482 1488 1496 1504 1513 1520 1522 1523 1522 1522 1523 1521 1521 1521 1522 1521 1519 1519
1453 1459 1464 1468 1474 1481 1488 1492 1499 1507 1524 1525 1520 1512 1515 1517 1519 1520 1517 1516 1514 1512
1441 1447 1453 1460 1468 1471 1477 1482 1485 1483 1491 1503 1509 1510 1508 1510 1514 1515 1515 1511 1509 1506
1435 1439 1444 1454 1462 1465 1469 1477 1482 1485 1489 1499 1499 1501 1503 1505 1507 1511 1511 1508 1507 1502
Wind_Speed
24 24 21 18 18 18 18 17 16 15 15 15 12 11 10 6 7 8 7 7 8 8
25 24 21 21 20 20 20 17 18 17 16 15 15 13 11 9 10 10 8 7 7 8
26 24 25 24 24 21 20 23 23 20 19 18 17 14 12 10 11 11 9 8 9 7
28 27 26 26 25 25 23 23 23 23 21 21 19 17 16 16 15 14 12 11 7 5
30 29 27 28 27 26 25 24 23 22 22 22 22 19 18 17 13 13 12 9 6 4
31 32 31 29 28 27 27 25 22 23 24 24 22 19 19 16 16 14 12 9 7 7
34 32 32 31 28 26 28 27 24 22 22 23 22 19 18 15 13 12 10 10 9 8
36 34 31 30 30 28 25 25 23 22 24 24 22 17 16 13 11 13 12 12 10 9
40 38 36 34 32 31 28 25 21 23 25 20 16 17 16 15 13 13 12 9 8 8
44 42 39 38 35 31 28 22 22 22 13 14 13 18 16 15 12 11 9 10 8 6
44 45 43 41 36 30 25 20 10 5 6 13 18 14 16 17 15 11 11 10 11 11
43 40 40 38 34 28 25 26 22 12 13 22 22 20 18 16 11 10 10 12 13 13
41 39 37 34 34 34 35 34 31 24 18 37 28 19 15 14 10 12 11 11 12 15
37 36 39 32 34 37 36 32 26 22 31 27 21 16 14 12 10 11 12 12 12 14
Wind_Direction
228 227 224 226 215 220 217 220 218 223 233 242 243 254 277 282 278 278 293 298 300 303
224 221 219 218 226 223 221 222 224 229 237 242 250 258 257 275 276 275 281 293 295 315
226 227 228 229 227 224 225 230 225 236 239 243 250 257 266 273 277 272 286 291 290 305
226 230 230 233 233 232 234 235 236 240 242 242 250 257 264 274 261 269 264 264 268 270
226 230 230 233 234 234 234 237 239 240 243 246 253 256 263 274 258 265 262 255 236 233
222 227 228 229 232 234 236 236 237 243 246 250 253 255 265 262 264 259 256 246 235 236
220 223 227 229 229 227 236 237 237 241 250 252 251 253 259 257 256 254 252 241 258 280
220 221 223 224 227 231 226 236 240 245 250 253 251 248 251 246 250 255 245 266 275 288
221 222 224 227 228 228 228 235 237 243 248 245 242 245 244 250 248 242 252 251 259 275
225 222 222 224 225 225 225 222 234 241 235 242 231 247 245 251 242 238 237 261 258 296
231 227 223 223 221 216 212 208 204 213 216 242 252 249 275 250 228 237 240 241 273 296
229 225 222 219 211 204 181 180 189 150 337 281 257 259 266 242 243 245 240 262 275 284
223 218 213 207 205 194 199 200 197 221 218 240 258 262 238 231 235 252 256 263 277 284
225 219 215 205 193 200 196 197 202 217 203 224 241 231 227 231 240 249 264 278 281 284